Location: Sternwarte auf dem Internationalen Platz Vogelsang IP
(50.5721°N, 6.4398°E)
Time: 22:22:51
(UTC+01:00)

Injun/Solrad 3 - Visible Passes

Search period start: 05 December 2025 00:00
Search period end: 15 December 2025 00:00
Orbit: 876 x 980 km, 66.8° (Epoch: 04 December)

Date Brightness Start Highest point End Pass type
(mag) Time Alt. Az. Time Alt. Az. Time Alt. Az.
05 Dec 9.2 04:20:55 31° ESE 04:21:17 31° ESE 04:26:21 10° NE visible
05 Dec 7.8 06:04:37 30° WSW 06:07:27 60° NW 06:13:15 10° NNE visible
06 Dec 8.7 04:32:41 44° E 04:32:41 44° E 04:37:40 10° NE visible
06 Dec 8.1 06:16:22 31° W 06:18:39 45° NW 06:24:16 10° NNE visible
07 Dec 8.4 04:44:11 53° ENE 04:44:11 53° ENE 04:48:51 10° NE visible
07 Dec 8.4 06:27:52 27° WNW 06:29:56 35° NW 06:35:16 10° NNE visible
08 Dec 10.6 03:11:53 11° ENE 03:11:53 11° ENE 03:12:19 10° ENE visible
08 Dec 8.3 04:55:33 53° NE 04:55:33 53° NE 04:59:57 10° NE visible
08 Dec 8.7 06:39:13 23° WNW 06:41:18 28° NNW 06:46:17 10° NNE visible
09 Dec 10.4 03:23:08 14° ENE 03:23:08 14° ENE 03:23:58 10° NE visible
09 Dec 8.4 05:06:47 46° NNE 05:06:47 46° NNE 05:11:00 10° NE visible
09 Dec 9.0 06:50:27 19° NW 06:52:44 23° NNW 06:57:21 10° NNE visible
10 Dec 10.3 03:34:17 15° NE 03:34:17 15° NE 03:35:20 10° NE visible
10 Dec 8.6 05:17:56 39° N 05:17:56 39° N 05:22:02 10° NNE visible
10 Dec 9.2 07:01:35 15° NW 07:04:13 20° NNW 07:08:28 10° NNE visible
11 Dec 10.2 03:45:21 17° NE 03:45:21 17° NE 03:46:34 10° NE visible
11 Dec 8.7 05:29:00 33° N 05:29:00 33° N 05:33:02 10° NNE visible
11 Dec 9.4 07:12:39 12° NW 07:15:47 18° NNW 07:19:42 10° NNE visible
12 Dec 10.1 03:56:21 17° NE 03:56:21 17° NE 03:57:40 10° NE visible
12 Dec 8.9 05:40:00 28° NNW 05:40:00 28° NNW 05:44:02 10° NNE visible
12 Dec 9.5 07:23:42 10° NW 07:27:22 17° N 07:31:03 10° NNE visible
13 Dec 10.0 04:07:19 18° NNE 04:07:19 18° NNE 04:08:45 10° NE visible
13 Dec 9.1 05:50:58 24° NNW 05:50:58 24° NNW 05:55:05 10° NNE visible
13 Dec 9.5 07:35:23 10° NW 07:38:59 16° N 07:42:35 10° NE visible
14 Dec 9.9 04:18:14 18° NNE 04:18:14 18° NNE 04:19:47 10° NNE visible
14 Dec 9.2 06:01:53 21° NNW 06:01:53 21° NNW 06:06:11 10° NNE visible
14 Dec 9.6 07:46:54 10° NNW 07:50:35 17° N 07:54:18 10° NE visible
